Home   Weather   Beaumont   Past weeks

Flag for USA Past Weather in Beaumont, Texas, USA — Yesterday and Last 2 Weeks

Now
69 °F

Clear.


Feels Like: 69 °F
Forecast: 67 / 88 °F
Wind: 6 mph from North

Location: Jefferson County Airport

Current Time: Sep 28, 2016 at 5:24:38 AM

Latest Report: Sep 28, 2016 at 4:53 AM


Visibility: 10 mi

Pressure: 29.97 "Hg

Humidity: 79%

Dew Point: 62 °F

Location of BeaumontLocation

Past Weather in Beaumont — Graph

°F

Beaumont Temperature Yesterday

Maximum temperature yesterday: 87 °F (at 3:53 PM)
Minimum temperature yesterday: 70 °F (at 7:53 AM)
Average temperature yesterday: 77 °F

High & Low Weather Summary for the Past Weeks

 TemperatureHumidityPressure
High96 °F (Sep 18, 3:53 PM)100% (Sep 18, 6:53 AM)30.07 "Hg (Sep 18, 6:53 AM)
Low70 °F (Sep 27, 7:53 AM)38% (Sep 21, 1:53 PM)29.86 "Hg (Sep 16, 4:53 PM)
Average81 °F79%29.97 "Hg
* Reported Sep 13 3:53 AM — Sep 28 3:53 AM, Beaumont, Weather by CustomWeather, © 2016

Note: Actual official high and low records may vary slightly from our data, if they occured in-between our weather recording intervals... More about our weather records

Advertising

Beaumont Weather History for the Previous 24 Hours

Scroll right to see more
 ConditionsComfort  
Time TempWeatherWind HumidityBarometerVisibility
3:53 AM
Wed, Sep 28
70 °FClear.6 mph76%29.96 "Hg10 mi
2:53 AM70 °FClear.6 mph79%29.97 "Hg10 mi
1:53 AM71 °FClear.6 mph78%29.98 "Hg10 mi
12:53 AM73 °FClear.7 mph74%29.98 "Hg10 mi
11:53 PM
Tue, Sep 27
74 °FClear.7 mph79%29.98 "Hg10 mi
10:53 PM74 °FPassing clouds.6 mph82%29.98 "Hg10 mi
9:53 PM75 °FClear.6 mph79%29.98 "Hg10 mi
8:53 PM76 °FPassing clouds.5 mph82%29.98 "Hg10 mi
7:53 PM77 °FPassing clouds.6 mph77%29.96 "Hg10 mi
6:53 PM80 °FScattered clouds.7 mph71%29.94 "Hg10 mi
5:53 PM83 °FSunny.8 mph65%29.93 "Hg10 mi
4:53 PM85 °FPassing clouds.6 mph59%29.93 "Hg10 mi
3:53 PM87 °FSunny.9 mph57%29.94 "Hg10 mi
2:53 PM84 °FPassing clouds.5 mph61%29.95 "Hg10 mi
1:53 PM86 °FSunny.5 mph57%29.97 "Hg10 mi
12:53 PM83 °FSunny.6 mph57%29.99 "Hg10 mi
11:53 AM82 °FSunny.6 mph58%30.01 "Hg10 mi
10:53 AM79 °FSunny.7 mph62%30.03 "Hg10 mi
9:53 AM75 °FPassing clouds.7 mph71%30.02 "Hg10 mi
8:53 AM72 °FScattered clouds.13 mph78%30.01 "Hg10 mi
7:53 AM70 °FSunny.10 mph87%29.99 "Hg10 mi
6:53 AM71 °FPassing clouds.12 mph84%29.98 "Hg10 mi
5:53 AM72 °FClear.8 mph87%29.98 "Hg10 mi
Weather by CustomWeather, © 2016

See weather overviewHow to use our weather pages